Flag for Sierra Leone Weather past 2 weeks in Freetown, Sierra Leone

Now
88 °F

Scattered clouds.


Feels Like: 96 °F
Forecast: 75 / 85 °F
Wind: 13 mph from West

Location: Lungi


UV Index: 7 (High)

Visibility: N/A


Pressure: 29.80 "Hg

Humidity: 62%

Dew point: 73 °F

Location of FreetownLocation

Historic Weather in Freetown

°F

Freetown temperature yesterday

Maximum temperature yesterday: 86 °F (at 12:00 PM)
Minimum temperature yesterday: 73 °F (at 7:00 AM)
Average temperature yesterday: 82 °F

Past Weeks' High & Low Weather Summary

 TemperatureHumidityPressure
High88 °F (Apr 1, 3:00 PM)100% (Apr 2, 8:00 PM)29.95 "Hg (Apr 2, 8:00 PM)
Low73 °F (Apr 15, 7:00 AM)42% (Apr 2, 9:00 AM)29.74 "Hg (Apr 2, 5:00 PM)
Average82 °F73%29.85 "Hg
* Reported Apr 1 12:00 Noon — Apr 16 12:00 Noon, Freetown, Weather by CustomWeather, © 2014

Note: Actual official high and low records may vary slightly from our data, if they occured in-between our weather recording intervals... More about our weather records

Advertising

Historic Weather Conditions — Data for Previous 24 hours

 ConditionsComfort  
Time TempWeatherWind HumidityBarometerVisibility
12:00 PM
Apr 16
88 °FScattered clouds.12 mph62%29.83 "HgN/A
11:00 AM86 °FScattered clouds.8 mph66%29.86 "HgN/A
10:00 AM86 °FScattered clouds.5 mph66%29.86 "HgN/A
9:00 AM81 °FPassing clouds.6 mph84%29.86 "HgN/A
8:00 AM79 °FFog.3 mph84%29.83 "Hg3 mi
1:00 AM81 °FClear.7 mph79%29.89 "HgN/A
12:00 AM81 °FClear.8 mph79%29.89 "Hg10 mi
10:00 PM
Apr 15
81 °FClear.6 mph70%29.83 "Hg10 mi
9:00 PM81 °FClear.7 mph70%29.80 "Hg10 mi
8:00 PM81 °FPassing clouds.8 mph70%29.77 "HgN/A
7:00 PM82 °FSunny.7 mph70%29.77 "Hg10 mi
6:00 PM84 °FSunny.7 mph66%29.77 "Hg10 mi
5:00 PM84 °FSunny.12 mph58%29.77 "Hg10 mi
4:00 PM86 °FSunny.9 mph55%29.77 "Hg10 mi
3:00 PM86 °FSunny.15 mph66%29.80 "Hg10 mi
2:00 PM86 °FSunny.9 mph66%29.86 "Hg10 mi
1:00 PM86 °FSunny.10 mph62%29.86 "Hg10 mi
Weather by CustomWeather, © 2014

See weather overview